Change the Weather History Date:

Tuesday, October 4, 2011

  Actual Average Record
Temperature  
Mean Temperature 74 °F -  
Max Temperature 80 °F 87 °F 91 °F (1998)
Min Temperature 69 °F 76 °F 68 °F (2001)
Cooling Degree Days 10    
Growing Degree Days 24 (Base 50)    
Moisture  
Dew Point 72 °F    
Average Humidity 95    
Maximum Humidity 100    
Minimum Humidity 79    
Precipitation  
Precipitation 0.35 in - - ()
Sea Level Pressure  
Sea Level Pressure 29.99 in    
Wind  
Wind Speed 2 mph ()    
Max Wind Speed 9 mph    
Max Gust Speed -    
Visibility 6.8 miles    
Events Rain    
Averages and records for this station are not official NWS values.
T = Trace of Precipitation, MM = Missing Value Source: Averaged Metar Reports

Daily Weather History Graph

Daily Weather History Graph

Search for Another Location

Airport or City:

Trip Planner

Search our weather history database for the weather conditions in past years. The results will help you decide how hot, cold, wet, or windy it might be!

Date:

Astronomy

Oct. 04, 2011 Rise Set
Actual Time 6:39 AM CDT 6:33 PM CDT
Civil Twilight 6:17 AM CDT 6:55 PM CDT
Nautical Twilight 5:51 AM CDT 7:20 PM CDT
Astronomical Twilight 5:26 AM CDT 7:46 PM CDT
Moon 1:47 PM CDT (10/4) 12:13 AM CDT (10/4)
Length of Visible Light 12h 37m
Length of Day
11h 53m
First Quarter, 56% of the Moon is Illuminated
Oct 4
First Quarter
Oct 11
Full
Oct 19
Last Quarter
Oct 26
New
Nov 2
First Quarter

Hourly Weather History & Observations

Time (CDT) Temp. Heat Index Dew Point Humidity Pressure Visibility Wind Dir Wind Speed Gust Speed Precip Events Conditions
12:47 AM 69.8 °F - 69.8 °F 100% 29.96 in 7.0 mi Calm Calm - N/A   Scattered Clouds
1:48 AM 69.8 °F - 69.8 °F 100% 29.98 in 7.0 mi Calm Calm - N/A   Scattered Clouds
2:44 AM 69.8 °F - 69.8 °F 100% 29.97 in 7.0 mi Calm Calm - N/A   Scattered Clouds
3:41 AM 69.8 °F - 69.8 °F 100% 29.99 in 7.0 mi Calm Calm - N/A   Scattered Clouds
4:43 AM 71.6 °F - 71.6 °F 100% 29.96 in 7.0 mi Calm Calm - N/A   Scattered Clouds
5:42 AM 69.8 °F - 69.8 °F 100% 29.97 in 7.0 mi Calm Calm - N/A   Partly Cloudy
6:48 AM 71.6 °F - 71.6 °F 100% 29.96 in 7.0 mi Calm Calm - N/A   Scattered Clouds
7:41 AM 73.4 °F - 73.4 °F 100% 30.01 in 8.0 mi Calm Calm - N/A   Mostly Cloudy
8:42 AM 78.8 °F - 75.2 °F 89% 30.02 in 8.0 mi ENE 4.6 mph - N/A   Scattered Clouds
9:43 AM 80.6 °F 85.4 °F 73.4 °F 79% 30.06 in 8.0 mi ENE 4.6 mph - N/A   Scattered Clouds
10:42 AM 80.6 °F 85.4 °F 73.4 °F 79% 30.04 in 8.0 mi ENE 4.6 mph - N/A   Mostly Cloudy
11:43 AM 78.8 °F - 73.4 °F 83% 30.02 in 7.0 mi NNE 6.9 mph - N/A   Mostly Cloudy
12:46 PM 71.6 °F - 71.6 °F 100% 30.01 in 2.0 mi West 9.2 mph - N/A Rain Rain
1:07 PM 69.8 °F - 69.8 °F 100% 30.01 in 5.0 mi NNW 8.1 mph - N/A   Overcast
1:42 PM 71.6 °F - 71.6 °F 100% 30.00 in 6.0 mi NNW 4.6 mph - N/A   Overcast
2:42 PM 73.4 °F - 73.4 °F 100% 29.97 in 6.0 mi Calm Calm - N/A   Overcast
3:45 PM 77.0 °F - 73.4 °F 89% 29.98 in 6.0 mi ESE 5.8 mph - N/A   Overcast
4:45 PM 77.0 °F - 73.4 °F 89% 29.94 in 7.0 mi ESE 6.9 mph - N/A   Overcast
5:45 PM 73.4 °F - 69.8 °F 88% 29.96 in 7.0 mi Calm Calm - N/A   Overcast
6:49 PM 73.4 °F - 71.6 °F 94% 29.94 in 7.0 mi North 3.5 mph - N/A   Mostly Cloudy
8:03 PM 71.6 °F - 69.8 °F 94% 29.99 in 7.0 mi Calm Calm - N/A   Mostly Cloudy
8:44 PM 71.6 °F - 69.8 °F 94% 29.99 in 7.0 mi Calm Calm - N/A   Mostly Cloudy
9:46 PM 71.6 °F - 71.6 °F 100% 30.02 in 7.0 mi Calm Calm - N/A   Mostly Cloudy
10:47 PM 71.6 °F - 71.6 °F 100% 30.00 in 7.0 mi ENE 3.5 mph - N/A   Mostly Cloudy
11:46 PM 71.6 °F - 71.6 °F 100% 29.99 in 7.0 mi Calm Calm - N/A   Mostly Cloudy